AO-07 1 07530U 74089B 18018.47605005 -.00000046 00000-0 -10127-4 0 9995 2 07530 101.6655 348.1749 0011808 265.6193 206.1434 12.53630712975839 UO-11 1 14781U 84021B 18018.54833019 +.00000080 +00000-0 +16103-4 0 9990 2 14781 097.6697 060.9812 0007839 204.8244 155.2594 14.82974249801262 LO-19 1 20442U 90005G 18018.35966021 -.00000005 +00000-0 +14389-4 0 9991 2 20442 098.5973 317.8867 0010845 229.3029 130.7213 14.32884410462374 HUBBLE 1 20580U 90037B 18018.45457564 +.00000449 +00000-0 +16544-4 0 9993 2 20580 028.4708 024.8686 0002543 334.7302 152.3726 15.08964492322748 MET-2/21 1 22782U 93055A 18018.49109907 +.00000020 +00000-0 +49831-5 0 9992 2 22782 082.5471 212.7176 0022190 184.0030 236.4654 13.83806048231205 AO-27 1 22825U 93061C 18018.83810881 -.00000018 00000-0 10673-4 0 9994 2 22825 98.8435 352.4053 0009396 65.1316 295.0841 14.30019481268229 IO-26 1 22826U 93061D 18018.88946502 -.00000007 00000-0 14902-4 0 9997 2 22826 98.8376 352.5137 0009839 55.7335 304.4777 14.30350198268413 FO-29 1 24278U 96046B 18018.56607771 +.00000001 +00000-0 +34666-4 0 9995 2 24278 098.5308 237.8161 0351069 138.9577 223.8553 13.53080567057750 NOAA-15 1 25338U 98030A 18018.58150724 +.00000018 +00000-0 +26360-4 0 9991 2 25338 098.7765 034.8572 0009691 304.8906 055.1362 14.25835686023442 GO-32 1 25397U 98043D 18018.40081447 -.00000011 +00000-0 +13994-4 0 9999 2 25397 098.6353 321.4423 0002393 091.6548 268.4905 14.23638069014192 ISS 1 25544U 98067A 18018.53557894 +.00043896 +00000-0 +66473-3 0 9993 2 25544 051.6423 044.7554 0003536 021.4730 139.6427 15.54204895095241 NO-44 1 26931U 01043C 18018.10434307 -.00000012 +00000-0 +27084-4 0 9998 2 26931 067.0505 256.6676 0005300 277.5724 082.4775 14.30491061851013 SO-50 1 27607U 02058C 18018.48571608 -.00000036 00000-0 15427-4 0 9997 2 27607 64.5539 187.5994 0047014 5.7119 354.4509 14.75412723810878 CO-55 1 27844U 03031E 18018.51768460 +.00000049 +00000-0 +41628-4 0 9995 2 27844 098.6884 029.3713 0010830 085.5407 274.7008 14.22089344754883 CO-57 1 27848U 03031J 18018.50589608 +.00000028 +00000-0 +32364-4 0 9997 2 27848 098.6974 029.7051 0010746 094.5752 265.6653 14.21696729754767 RS-22 1 27939U 03042A 18018.85429302 .00000068 00000-0 20714-4 0 9992 2 27939 97.9666 162.0611 0011679 260.9580 253.1691 14.66649967764929 NOAA-18 1 28654U 05018A 18018.55882813 -.00000010 +00000-0 +19664-4 0 9999 2 28654 099.1635 050.8302 0014384 184.1859 175.9194 14.12364082652565 CO-58 1 28895U 05043F 18018.41114179 +.00000130 +00000-0 +33666-4 0 9992 2 28895 097.8863 176.1270 0016932 178.5794 181.5460 14.63499099651732 Falconsat-3 1 30776U 07006E 18018.40248954 +.00002348 +00000-0 +71733-4 0 9992 2 30776 035.4352 139.7568 0002354 122.2853 237.8101 15.33769085601302 CO-65 1 32785U 08021C 18018.50171462 +.00000203 +00000-0 +27720-4 0 9997 2 32785 097.5536 037.7818 0013387 168.4516 191.7011 14.88047551526847 AAUSAT2 1 32788U 08021F 18018.82587684 .00000757 00000-0 75650-4 0 9991 2 32788 97.5372 51.4429 0013215 125.5954 234.6500 14.94191447527874 DO-64 1 32789U 08021G 18018.60350806 +.00000649 +00000-0 +49028-4 0 9992 2 32789 097.5330 077.0775 0014192 089.4818 270.8036 15.05682965529173 CO-66 1 32791U 08021J 18018.49722097 +.00000274 +00000-0 +33416-4 0 9995 2 32791 097.5463 042.7711 0014162 151.5971 208.6022 14.90447218527131 RS-30 1 32953U 08025A 18018.66020271 .00000033 00000-0 16791-3 0 9992 2 32953 82.5038 105.6799 0019750 173.2821 186.8527 12.43080942438198 PRISM 1 33493U 09002B 18018.69156977 -.00000082 00000-0 -16219-5 0 9997 2 33493 98.1455 274.9283 0016592 88.8558 271.4564 14.96039851487998 NOAA-19 1 33591U 09005A 18018.58159616 +.00000087 +00000-0 +72332-4 0 9990 2 33591 099.1234 353.7904 0014544 030.3962 329.8049 14.12246987460798 TISAT-1 1 36799U 10035E 18018.56868328 +.00000445 +00000-0 +51409-4 0 9993 2 36799 098.0849 151.0440 0011863 345.6880 014.3999 14.90670318407669 JUGNU 1 37839U 11058B 18018.73555639 .00000311 00000-0 24393-4 0 9996 2 37839 19.9599 223.4912 0018952 39.5229 36.2962 14.12606843324217 SRMSAT 1 37841U 11058D 18018.13102278 .00000305 00000-0 22715-4 0 9999 2 37841 19.9717 273.2678 0011747 282.0334 229.7961 14.10596396323677 AO-71 1 37854U 11061E 18018.58757673 +.00000893 +00000-0 +54810-4 0 9994 2 37854 101.7098 006.9204 0164888 156.9482 203.9239 15.05013080338876 HRBE 1 37855U 11061F 18018.47940417 +.00000525 +00000-0 +35235-4 0 9995 2 37855 101.7229 004.4141 0177912 165.0914 195.5640 15.03988749338670 ALMASAT-1 1 38078U 12006B 18018.53586390 +.00024740 +38950-5 +23629-3 0 9994 2 38078 069.4342 268.4015 0269549 330.6646 092.6918 15.33324261317663 HORYU-2 1 38340U 12025D 18018.07153326 .00000201 00000-0 37726-4 0 9995 2 38340 98.3744 34.5711 0010978 334.2110 25.8550 14.75485317304978 RS-40 1 38735U 12041C 18018.59366476 -.00000003 +00000-0 -92845-4 0 9995 2 38735 082.4747 189.8798 0016244 279.5595 080.3649 12.42576242248424 BEESAT-3 1 39134U 13015E 18018.41563692 +.00001095 +00000-0 +61709-4 0 9996 2 39134 064.8628 251.2334 0029126 230.0855 129.7712 15.18723282261770 BEESAT-2 1 39136U 13015G 18018.64149078 .00000728 00000-0 47868-4 0 9993 2 39136 64.8690 264.3390 0030311 253.0384 106.7418 15.15806723261922 ZACUBE-1 1 39417U 13066B 18018.51638603 +.00000209 +00000-0 +32948-4 0 9991 2 39417 097.6047 055.0126 0057728 285.6983 073.7867 14.80861372224644 TRITON-1 1 39427U 13066M 18018.51298217 +.00000202 +00000-0 +40283-4 0 9999 2 39427 097.6366 024.4140 0114638 019.6301 340.9265 14.67598931222437 GOMX-1 1 39430U 13066Q 18018.45867697 .00000243 00000-0 52562-4 0 9998 2 39430 97.6815 6.2661 0153081 83.2900 278.5696 14.59007132221323 LO-74 1 39440U 13066AA 18018.48657610 +.00000208 +00000-0 +36273-4 0 9996 2 39440 097.6108 042.5480 0079643 322.4810 037.0858 14.75599079222648 AO-73 1 39444U 13066AE 18018.52251777 +.00000247 +00000-0 +37204-4 0 9997 2 39444 097.6061 056.3522 0056882 281.4968 077.9862 14.81624046222905 SPROUT 1 39770U 14029E 18018.71149170 .00000492 00000-0 61596-4 0 9996 2 39770 97.8753 121.0817 0008649 349.9920 10.1135 14.86633332198154 DUCHIFAT-1 1 40021U 14033M 18018.72942194 .00000408 00000-0 47976-4 0 9993 2 40021 97.9179 297.1797 0012128 316.2714 43.7542 14.90172618194694 NANOSATCBR1 1 40024U 14033Q 18018.29442542 +.00000360 +00000-0 +43764-4 0 9998 2 40024 097.9126 295.2712 0011440 320.0838 039.9536 14.89455521194045 EO-79 1 40025U 14033R 18018.59328578 +.00000250 +00000-0 +32877-4 0 9995 2 40025 097.9094 294.2720 0011696 322.7227 037.3177 14.88618569194025 DTUSAT-2 1 40030U 14033W 18018.72092453 .00000247 00000-0 32844-4 0 9996 2 40030 97.9050 293.2783 0011046 317.0169 43.0184 14.88232625194502 EO-80 1 40032U 14033Y 18018.77248137 .00000269 00000-0 35290-4 0 9997 2 40032 97.9057 293.3340 0011001 317.3528 42.6834 14.88168548194503 ANTELSAT 1 40034U 14033AA 18018.30537448 .00000225 00000-0 41255-4 0 9994 2 40034 97.8319 260.2222 0058184 321.9040 37.8062 14.73848278192607 VELOX-1 1 40057U 14034E 18018.76488349 .00000269 00000-0 45474-4 0 9990 2 40057 98.1947 127.3530 0012429 88.4324 271.8309 14.77324977191589 DAURIA DX 1 1 40071U 14037C 18018.71448596 .00000095 00000-0 19637-4 0 9993 2 40071 98.3555 143.6146 0009888 82.0957 278.1380 14.81113523190871 UKUBE-1 1 40074U 14037F 18018.71044473 .00000230 00000-0 34935-4 0 9991 2 40074 98.3672 148.6333 0006104 81.8352 278.3553 14.83700655191135 HODOYOSHI-1 1 40299U 14070B 18018.76939620 .00000577 00000-0 27717-4 0 9993 2 40299 97.3902 103.1309 0014848 59.3474 38.7819 15.22694899177747 CHUBUSAT-1 1 40300U 14070C 18018.73202316 .00000768 00000-0 37177-4 0 9991 2 40300 97.3793 99.5445 0022221 68.2541 30.3968 15.21347961177551 QSAT-EOS 1 40301U 14070D 18018.73419851 .00001599 00000-0 67766-4 0 9996 2 40301 97.3736 100.2701 0028647 61.1784 37.3992 15.24249908177653 FIREBIRD FU3 1 40377U 15003B 18018.58193387 +.00001761 +00000-0 +76500-4 0 9999 2 40377 099.1052 250.5787 0133208 008.3748 351.9659 15.16592506163637 FIREBIRD FU4 1 40378U 15003C 18018.57182801 +.00001814 +00000-0 +78566-4 0 9991 2 40378 099.1054 250.6169 0133398 008.3074 352.0318 15.16605196163631 GRIFEX 1 40379U 15003D 18018.52699825 +.00001247 +00000-0 +58937-4 0 9996 2 40379 099.1089 247.4096 0140100 018.8537 341.7804 15.13874170163443 NO-84 1 40654U 15025D 18018.36924391 +.00007293 +00000-0 +12554-3 0 01989 2 40654 054.9932 351.7822 0169835 089.2179 272.8263 15.37930017032774 NO-83 1 40655U 15025E 18018.29586154 +.00013910 +00000-0 +17061-3 0 02288 2 40655 054.9790 310.8008 0128276 112.8922 248.5684 15.51377816032979 DEORBITSAIL 1 40719U 15032E 18018.53810377 +.00000364 +00000-0 +59787-4 0 9997 2 40719 097.9609 274.3523 0016537 165.7374 194.4306 14.76307127136098 NUDT-PHONESAT 1 40900U 15049B 18018.57097760 +.00001840 +00000-0 +86758-4 0 9992 2 40900 097.4423 028.6114 0013392 186.1980 173.9091 15.20675174129175 XW-2A 1 40903U 15049E 18018.81322651 .00001681 00000-0 44321-4 0 9995 2 40903 97.4017 52.0872 0013679 202.9422 157.1215 15.39904086130817 XW-2C 1 40906U 15049H 18018.85905290 .00000584 00000-0 34775-4 0 9991 2 40906 97.4578 25.1298 0014991 181.4254 178.6938 15.14978572128885 XW-2D 1 40907U 15049J 18018.82560399 .00000627 00000-0 36912-4 0 9999 2 40907 97.4550 24.8145 0014413 179.1997 180.9261 15.15113851128887 LILACSAT-2 1 40908U 15049K 18018.52436222 +.00000295 +00000-0 +20125-4 0 9994 2 40908 097.4657 024.0648 0015995 181.2394 178.8801 15.13384281128732 XW-2F 1 40910U 15049M 18018.82052734 .00000921 00000-0 51014-4 0 9999 2 40910 97.4560 25.8567 0015246 176.0980 184.0374 15.16202355128816 XW-2B 1 40911U 15049N 18018.83787658 .00000602 00000-0 35618-4 0 9999 2 40911 97.4588 25.3046 0014319 179.6244 180.5001 15.15063803128782 DCBB 1 40912U 15049P 18018.77615726 .00000998 00000-0 51738-4 0 9998 2 40912 97.4509 28.2548 0015557 165.3222 300.1720 15.18379968128994 TW-1C 1 40926U 15051B 18018.73669507 .00007061 00000-0 14287-3 0 9993 2 40926 97.2035 61.8662 0012483 102.0757 352.3476 15.46669775130198 TW-1A 1 40928U 15051D 18018.39879646 +.00003010 +00000-0 +82995-4 0 9996 2 40928 097.2037 055.2833 0013372 135.6243 339.0326 15.37804351129756 IO-86 1 40931U 15052B 18018.31122922 +.00000754 +00000-0 +15940-4 0 9999 2 40931 006.0024 138.8331 0013728 045.9950 314.1778 14.76562800124817 LQSat 1 40958U 15057A 18018.72251761 .00000026 00000-0 11740-4 0 9998 2 40958 97.9572 95.0354 0019629 95.3154 265.0297 14.73012217122843 AO-85 1 40967U 15058D 18018.22539907 +.00000223 +00000-0 +43141-4 0 02122 2 40967 064.7773 286.4599 0190770 001.5645 358.6014 14.75622874031524 ATHENOXAT-1 1 41168U 15077C 18018.45750337 +.00001982 +00000-0 +72683-4 0 9992 2 41168 014.9847 035.8487 0012303 120.3311 280.5441 15.12387240115677 ChubuSat-2 1 41338U 16012B 18018.71616514 .00000289 00000-0 15897-4 0 9991 2 41338 31.0020 183.2511 0013819 32.5195 327.6290 14.99905742105370 ChubuSat-3 1 41339U 16012C 18018.68231048 .00000307 00000-0 17270-4 0 9991 2 41339 31.0064 182.2786 0013589 39.4399 320.7223 15.00098217105359 Horyu-4 1 41340U 16012D 18018.62100751 +.00000434 +00000-0 +26606-4 0 9997 2 41340 031.0039 178.5917 0013995 049.3686 310.8165 15.00861711105405 OUFTI-1 1 41458U 16025C 18018.71876158 .00000886 00000-0 51307-4 0 9999 2 41458 98.1570 73.4692 0169605 288.9281 69.3586 15.04161470 94964 e-st@r-II 1 41459U 16025D 18018.36821836 +.00001166 +00000-0 +66051-4 0 9998 2 41459 098.1566 072.9918 0171229 290.5128 067.7797 15.03923898094908 AAUSAT4 1 41460U 16025E 18018.67942363 .00002376 00000-0 12865-3 0 9990 2 41460 98.1521 73.6123 0162467 286.4132 71.9262 15.05181227 94997 LO-87 1 41557U 16033B 18018.41014757 .00001169 00000-0 45580-4 0 9995 2 41557 97.4476 102.8596 0013068 333.2847 26.7717 15.27920194 91280 NuSat2 1 41558U 16033C 18018.79444833 .00001165 00000-0 45688-4 0 9994 2 41558 97.4503 103.3207 0012443 330.8135 29.2407 15.27753086 91330 Lapan A3 1 41603U 16040E 18018.79805848 .00000048 00000-0 54674-5 0 9995 2 41603 97.4340 82.8623 0014923 47.2665 90.1211 15.19498453 87391 Swayam 1 41607U 16040J 18018.41909774 +.00001357 +00000-0 +62806-4 0 9990 2 41607 097.4341 083.3758 0015091 048.5505 311.7025 15.21752647087324 Pratham 1 41783U 16059A 18018.20959682 +.00000042 +00000-0 +17627-4 0 9996 2 41783 098.1396 082.0324 0033169 204.4542 155.5088 14.62894749070039 AlSat 1N 1 41789U 16059G 18018.70280563 .00000084 00000-0 25117-4 0 9991 2 41789 98.1401 83.4418 0028016 194.9603 165.0774 14.64120108 70140 ScatSat 1 41790U 16059H 18018.58992776 +.00000016 +00000-0 +15298-4 0 9999 2 41790 098.2821 068.9230 0018106 186.7475 173.3478 14.50857625069499 TY-1 1 41844U 16066D 18018.74032193 .00001275 00000-0 57420-4 0 9994 2 41844 97.4053 27.7396 0015017 195.2713 283.7777 15.22802875 66134 CAS-2T 1 41845U 16066E 18018.77787165 .00000135 00000-0 31677-4 0 9994 2 41845 98.7640 44.4282 0365622 328.4688 29.5040 14.37853355 62478 Pegasus-1 1 41846U 16066F 18018.86345738 .00000284 00000-0 54538-4 0 9997 2 41846 98.7681 44.1517 0368052 330.1658 27.8988 14.37242075 62450 STARS-C 1 41895U 98067KR 18018.80518722 .00120218 00000-0 40760-3 0 9992 2 41895 51.6325 10.6706 0005737 63.2895 296.8697 15.89014292 61898 TO-89 1 41932U 98067KU 18018.45942070 +.00016195 +00000-0 +14749-3 0 9998 2 41932 051.6385 027.3485 0004756 004.2091 355.8945 15.68080922057211 AOBA-V3LOX3 1 41935U 98067KX 18018.46430402 +.00020069 +00000-0 +17012-3 0 9994 2 41935 051.6375 025.8594 0004341 008.9865 351.1209 15.69664901057338 OSNSAT 1 41939U 98067KZ 18011.28402027 +.11925055 +12489-4 +54124-3 0 9997 2 41939 051.6147 038.9582 0001091 231.1728 128.9202 16.43639489055773 EO-88 1 42017U 17008BX 18018.67585353 .00001354 00000-0 58957-4 0 9991 2 42017 97.4687 84.5126 0006655 171.8301 188.3045 15.23953992 51290 HAVELSAT 1 42700U 98067LH 18018.44558162 +.00014539 +00000-0 +15575-3 0 9994 2 42700 051.6381 036.2379 0005651 046.7980 313.3486 15.64093043038532 SOMP2 1 42701U 98067LJ 18018.49340687 +.00012948 +00000-0 +14231-3 0 9991 2 42701 051.6376 036.5570 0005632 046.7960 313.3504 15.63553621038522 Columbia 1 42702U 98067LK 18018.43876713 +.00114763 +00000-0 +51541-3 0 9993 2 42702 051.6304 025.5676 0006764 051.1665 308.9940 15.83240398038595 PHOENIX 1 42706U 98067LP 18018.48092753 +.00011741 +00000-0 +13004-3 0 9990 2 42706 051.6379 036.4770 0001747 023.3000 336.8073 15.63473555038449 X-CubeSat 1 42707U 98067LQ 18018.45423963 .00015300 00000-0 16321-3 0 9999 2 42707 51.6361 36.2749 0001997 22.4271 337.6811 15.64161929 38430 qbee 1 42708U 98067LR 18018.47353949 +.00014565 +00000-0 +15767-3 0 9993 2 42708 051.6376 036.4131 0001980 022.0782 338.0298 15.63831362038392 ZA-AeroSat 1 42713U 98067LU 18018.46133332 .00012765 00000-0 14690-3 0 9994 2 42713 51.6373 37.8413 0002441 351.9510 8.1444 15.62386173 38087 LINK 1 42714U 98067LV 18018.47909051 +.00023317 +00000-0 +22231-3 0 9990 2 42714 051.6349 034.9269 0002852 000.4344 359.6654 15.66666406038233 UPSat 1 42716U 98067LX 18018.49960685 +.00019486 +00000-0 +19424-3 0 9996 2 42716 051.6371 035.0923 0004276 046.8347 313.3006 15.65674298038255 SpaceCube 1 42717U 98067LY 18018.55737559 +.00014033 +00000-0 +15270-3 0 9994 2 42717 051.6370 036.2276 0004241 048.0441 312.0915 15.63731691037488 Hoopoe 1 42718U 98067LZ 18018.49503980 +.00016201 +00000-0 +16869-3 0 9991 2 42718 051.6375 035.8124 0004236 045.3217 314.8123 15.64722958037484 Challenger 1 42721U 98067MA 18018.58083548 +.00026376 +00000-0 +23409-3 0 9990 2 42721 051.6356 033.3547 0006621 030.8818 329.2567 15.68342573037224 NJUST-1 1 42722U 98067MB 18018.44925915 .00011283 00000-0 13336-3 0 9998 2 42722 51.6380 38.5120 0006849 31.9015 328.2392 15.61818004 37145 UNSW-EC0 1 42723U 98067MC 18018.46560872 +.00018168 +00000-0 +18785-3 0 9990 2 42723 051.6387 036.3756 0006509 030.3446 329.7925 15.64791781037152 DUTHsat 1 42724U 98067MD 18018.49520197 +.00026867 +00000-0 +24456-3 0 9997 2 42724 051.6364 034.3017 0005926 032.0487 328.0869 15.67712905037122 LO-90 1 42725U 98067ME 18018.84650832 .00014243 00000-0 16000-3 0 9998 2 42725 51.6380 35.9166 0005935 35.0838 325.0546 15.62889269 37128 nSIGHT1 1 42726U 98067MF 18018.50625461 +.00005944 +00000-0 +81158-4 0 9997 2 42726 051.6395 040.4097 0006295 037.3115 322.8314 15.59036779037036 QBITO 1 42728U 98067MH 18018.46195716 .00015601 00000-0 16942-3 0 9998 2 42728 51.6398 37.1223 0003679 38.3689 321.7567 15.63684193 36878 Aalto-2 1 42729U 98067MJ 18018.45797552 .00015475 00000-0 16747-3 0 9996 2 42729 51.6380 37.0744 0003653 37.8787 322.2465 15.63779188 36885 SUSat 1 42730U 98067MK 18018.48961636 +.00013763 +00000-0 +15260-3 0 9994 2 42730 051.6375 037.2780 0003709 035.7866 324.3376 15.63269423036880 i-INSPIRE II 1 42731U 98067ML 18018.50497026 +.00019987 +00000-0 +20326-3 0 9998 2 42731 051.6369 035.8576 0006431 348.7926 011.2925 15.65137367036942 PolyITAN-2-SAU 1 42732U 98067MM 18018.50678190 +.00016547 +00000-0 +17714-3 0 9998 2 42732 051.6374 036.6284 0006419 346.9735 013.1093 15.63984974036936 SNUSAT-1 1 42733U 98067MN 18018.49089106 +.00013042 +00000-0 +14494-3 0 9999 2 42733 051.6376 037.2776 0006529 348.5870 011.4975 15.63255043036929 ExAlta-1 1 42734U 98067MP 18018.57449501 +.00019156 +00000-0 +19489-3 0 9999 2 42734 051.6360 035.5718 0007873 010.1216 349.9936 15.65148116036907 Aoxiang-1 1 42735U 98067MQ 18018.50063509 +.00010814 +00000-0 +12726-3 0 9992 2 42735 051.6372 038.0951 0007351 029.0407 331.0994 15.61982174038285 BeEagleSat 1 42736U 98067MR 18018.27292161 .00012787 00000-0 14560-3 0 9994 2 42736 51.6372 38.8224 0007211 27.2058 332.9313 15.62643509 36947 Atlantis 1 42737U 98067MS 18018.57720890 +.00073913 +00000-0 +42327-3 0 9993 2 42737 051.6287 028.0005 0007231 032.8347 327.3102 15.78119833037003 CAS-4B 1 42759U 17034B 18018.50035053 +.00000153 +00000-0 +23033-4 0 9995 2 42759 043.0170 184.9398 0009150 255.2652 205.0323 15.09167709032834 CAS-4A 1 42761U 17034D 18018.48922098 +.00000048 +00000-0 +16543-4 0 9990 2 42761 043.0163 184.8648 0009686 255.9682 202.2552 15.09242230032825 UCLSat 1 42765U 17036A 18018.60400337 +.00001155 +00000-0 +54491-4 0 9991 2 42765 097.4227 080.7291 0010626 236.4019 123.6203 15.21441463032557 NIUSat 1 42766U 17036B 18018.58648535 +.00000920 +00000-0 +45733-4 0 9991 2 42766 097.4229 080.3040 0015070 223.0952 136.9104 15.20062278031800 LituanicaSAT 2 1 42768U 17036D 18018.60230391 +.00001831 +00000-0 +86171-4 0 9996 2 42768 097.4236 080.4374 0014981 226.0337 133.9664 15.20729025031821 Aalto 1 1 42775U 17036L 18018.58931377 +.00000761 +00000-0 +37949-4 0 9993 2 42775 097.4224 080.4456 0013211 223.3454 136.6743 15.20469219031769 URSA MAIOR 1 42776U 17036M 18018.58270633 +.00000807 +00000-0 +39973-4 0 9995 2 42776 097.4229 080.4630 0013095 223.5348 136.4855 15.20532551031765 Max Valier Sat 1 42778U 17036P 18018.59187458 +.00000859 +00000-0 +41859-4 0 9993 2 42778 097.4249 080.6483 0011625 228.6552 131.3684 15.20981952031764 Pegasus 1 42784U 17036V 18018.82125513 .00001062 00000-0 50551-4 0 9996 2 42784 97.4228 80.9037 0011165 235.6329 124.3852 15.21275550 31800 NUDATSat 1 42787U 17036Y 18018.59024573 +.00001544 +00000-0 +71283-4 0 9997 2 42787 097.4233 080.7563 0010789 236.4314 123.5892 15.21685329031618 SUCHAI 1 1 42788U 17036Z 18018.60427937 +.00001246 +00000-0 +58430-4 0 9999 2 42788 097.4229 080.7334 0010797 236.4689 123.5516 15.21481638031849 SKCUBE 1 42789U 17036AA 18018.60151981 +.00001160 +00000-0 +54627-4 0 9992 2 42789 097.4228 080.7341 0010622 236.3615 123.6608 15.21474104031766 VZLUSAT 1 1 42790U 17036AB 18018.45067620 +.00001579 +00000-0 +72765-4 0 9990 2 42790 097.4230 080.6268 0010324 237.1403 122.8839 15.21716809031747 VENTA 1 1 42791U 17036AC 18018.58916732 +.00001124 +00000-0 +52948-4 0 9999 2 42791 097.4228 080.7490 0010235 237.0283 122.9969 15.21544243031756 Robusta 1B 1 42792U 17036AD 18018.58376000 +.00001175 +00000-0 +55116-4 0 9994 2 42792 097.4226 080.7508 0010176 237.4181 122.6073 15.21608665031774 D-SAT 1 42794U 17036AF 18018.43586812 +.00000339 +00000-0 +34944-4 0 9991 2 42794 097.6145 078.5783 0128585 060.7925 300.6084 14.90763999031413 BIRD-J 1 42820U 98067MU 18018.45376482 +.00012913 +00000-0 +15141-3 0 9994 2 42820 051.6372 039.2813 0003004 337.6351 022.4511 15.61885878030435 BIRD-G 1 42821U 98067MV 18018.47001386 +.00012192 +00000-0 +14469-3 0 9996 2 42821 051.6373 039.3900 0003041 340.9034 019.1845 15.61632619030415 BIRD-M 1 42822U 98067MW 18018.53089103 +.00012346 +00000-0 +14592-3 0 9995 2 42822 051.6374 039.0483 0003070 343.4754 016.6139 15.61725562030428 BIRD-B 1 42823U 98067MX 18018.46844588 +.00012767 +00000-0 +15055-3 0 9996 2 42823 051.6380 039.3898 0006096 354.4876 005.6050 15.61739344030419 BIRD-N 1 42824U 98067MY 18018.47831676 +.00012515 +00000-0 +14833-3 0 9996 2 42824 051.6385 039.4625 0005982 355.0942 004.9992 15.61628047030412 TechnoSat 1 42829U 17042E 18018.82037006 .00000266 00000-0 32480-4 0 9998 2 42829 97.6080 286.6957 0013846 342.2690 17.8043 14.90755459 28088 Mayak 1 42830U 17042F 18018.79920266 .00000694 00000-0 75425-4 0 9996 2 42830 97.6088 286.7383 0014107 339.9554 20.1109 14.91072967 28071 OBJECT MZ 1 42910U 98067MZ 18018.49151386 +.00009678 +00000-0 +12389-3 0 9997 2 42910 051.6369 041.0221 0007126 013.5766 346.5417 15.59908749023981 OBJECT NA 1 42911U 98067NA 18018.85975886 .00011494 00000-0 14372-3 0 9990 2 42911 51.6380 39.0050 0006705 10.8655 349.2482 15.60314315 24021 OBJECT NB 1 42912U 98067NB 18018.56381451 +.00008971 +00000-0 +11505-3 0 9999 2 42912 051.6376 040.7437 0006177 021.7614 338.3640 15.59975976023998 OBJECT NC 1 42913U 98067NC 18018.54390071 +.00018688 +00000-0 +20713-3 0 9993 2 42913 051.6367 039.1221 0005344 028.9977 331.1313 15.62997678024017 OBJECT ND 1 42914U 98067ND 18018.57955637 +.00009596 +00000-0 +12399-3 0 9991 2 42914 051.6381 040.8800 0006068 016.4035 343.7153 15.59677559023960 QIKCOM-1 1 42983U 98067NF 18018.61567225 .00002726 00000-0 46699-4 0 9993 2 42983 51.6435 43.9479 0004473 13.9352 71.3142 15.55167809 12939 AO-91 1 43017U 17073E 18018.52470079 +.00000948 +00000-0 +79563-4 0 9990 2 43017 097.6976 316.0057 0261521 039.0252 322.9510 14.77845764009005 EcAMSat 1 43019U 98067NG 18018.47141522 +.00004146 +00000-0 +66667-4 0 9991 2 43019 051.6404 044.6683 0005151 343.1375 016.9444 15.55442760095234 PICSAT 1 43131U 18004W 18018.51595029 +.00001511 +00000-0 +68861-4 0 9990 2 43131 097.5551 080.6663 0008481 259.7977 100.2303 15.22215149000946 AO-92 1 43137U 18004AC 18018.84393893 .00000927 00000-0 43283-4 0 9998 2 43137 97.5551 80.9975 0008054 261.3540 98.6783 15.22370368 983 /EX
